TimeMST,TemperatureF,Dew PointF,Humidity,Sea Level PressureIn,VisibilityMPH,Wind Direction,Wind SpeedMPH,Gust SpeedMPH,PrecipitationIn,Events,Conditions,WindDirDegrees,DateUTC
12:53 AM,50.0,26.1,39,29.75,10.0,South,8.1,16.1,N/A,,Clear,180,2013-03-08 07:53:00
1:53 AM,48.9,26.1,41,29.73,10.0,SSE,12.7,-,N/A,,Clear,150,2013-03-08 08:53:00
2:53 AM,46.0,32.0,58,29.76,10.0,SSW,18.4,25.3,0.00,Rain,Light Rain,200,2013-03-08 09:53:00
3:53 AM,41.0,35.1,79,29.73,10.0,South,8.1,-,0.00,Rain,Light Rain,190,2013-03-08 10:53:00
4:53 AM,39.9,33.1,77,29.73,10.0,SSE,17.3,-,0.00,,Mostly Cloudy,150,2013-03-08 11:53:00
5:53 AM,39.0,36.0,89,29.74,7.0,SE,9.2,-,0.01,Rain,Light Rain,130,2013-03-08 12:53:00
6:53 AM,37.9,35.1,89,29.73,10.0,SE,10.4,17.3,0.00,,Overcast,130,2013-03-08 13:53:00
7:25 AM,37.4,35.6,93,29.82,8.0,SE,9.2,-,0.00,Rain,Light Rain,130,2013-03-08 14:25:00
7:53 AM,39.0,36.0,89,29.71,10.0,ESE,6.9,-,0.01,,Overcast,110,2013-03-08 14:53:00
8:53 AM,44.1,35.1,71,29.72,10.0,South,18.4,25.3,0.00,,Overcast,170,2013-03-08 15:53:00
9:00 AM,44.6,35.6,71,29.82,10.0,South,13.8,25.3,N/A,,Mostly Cloudy,180,2013-03-08 16:00:00
9:53 AM,48.0,36.0,63,29.69,10.0,South,13.8,25.3,0.00,,Mostly Cloudy,170,2013-03-08 16:53:00
10:53 AM,43.0,37.0,80,29.70,6.0,South,9.2,21.9,0.00,Rain,Light Rain,190,2013-03-08 17:53:00
11:28 AM,44.6,37.4,76,29.79,10.0,South,16.1,32.2,0.00,Rain,Light Rain,180,2013-03-08 18:28:00
11:53 AM,39.9,36.0,86,29.70,3.0,WSW,26.5,31.1,0.01,Rain,Light Rain,240,2013-03-08 18:53:00
11:55 AM,39.2,35.6,87,29.80,2.0,SW,24.2,31.1,0.01,Rain,Rain,230,2013-03-08 18:55:00
11:57 AM,37.4,35.6,93,29.81,1.5,SW,20.7,31.1,0.02,Rain,Rain,230,2013-03-08 18:57:00
12:36 PM,42.8,37.4,81,29.78,10.0,SSW,11.5,-,0.04,,Mostly Cloudy,210,2013-03-08 19:36:00
12:45 PM,42.8,37.4,81,29.77,10.0,SSW,8.1,-,0.04,,Mostly Cloudy,200,2013-03-08 19:45:00
12:53 PM,43.0,37.0,80,29.66,9.0,SW,13.8,21.9,0.04,Rain,Light Rain,220,2013-03-08 19:53:00
1:46 PM,39.2,35.6,87,29.75,1.8,SSW,13.8,20.7,0.04,Rain,Rain,210,2013-03-08 20:46:00
1:53 PM,37.9,35.1,89,29.65,1.2,WSW,10.4,23.0,0.06,Rain,Light Rain,250,2013-03-08 20:53:00
1:59 PM,37.4,35.6,93,29.74,3.0,SW,10.4,-,0.00,Rain,Light Rain,230,2013-03-08 20:59:00
2:08 PM,37.4,35.6,93,29.73,2.5,SSW,10.4,-,0.01,Rain,Light Rain,200,2013-03-08 21:08:00
2:53 PM,34.0,30.9,89,29.67,2.5,West,16.1,24.2,0.06,Snow,Light Snow,270,2013-03-08 21:53:00
3:00 PM,33.8,30.2,87,29.74,0.8,West,15.0,23.0,0.00,Snow,Light Snow,260,2013-03-08 22:00:00
3:05 PM,33.8,30.2,87,29.75,2.0,WSW,17.3,28.8,0.00,Snow,Light Snow,250,2013-03-08 22:05:00
3:11 PM,33.8,28.4,81,29.76,0.8,WSW,21.9,28.8,0.00,Snow,Light Snow,240,2013-03-08 22:11:00
3:19 PM,32.0,30.2,93,29.77,0.5,WSW,19.6,27.6,0.00,Fog-Snow,Snow,240,2013-03-08 22:19:00
3:34 PM,32.0,30.2,93,29.80,0.2,WSW,18.4,-,0.01,Fog-Snow,Heavy Snow,240,2013-03-08 22:34:00
3:41 PM,30.2,28.4,93,29.81,0.2,WSW,19.6,-,0.01,Fog-Snow,Heavy Snow,240,2013-03-08 22:41:00
3:53 PM,30.9,28.9,92,29.76,0.2,WSW,19.6,27.6,0.02,Fog-Snow,Heavy Snow,240,2013-03-08 22:53:00
4:05 PM,32.0,28.4,87,29.79,0.5,SW,15.0,-,0.00,Fog-Snow,Light Snow,220,2013-03-08 23:05:00
4:12 PM,32.0,28.4,87,29.79,1.2,SSW,16.1,19.6,0.01,Snow,Light Snow,210,2013-03-08 23:12:00
4:26 PM,30.2,28.4,93,29.80,0.2,SW,18.4,32.2,0.01,Fog-Snow,Snow,220,2013-03-08 23:26:00
4:33 PM,30.2,28.4,93,29.79,0.2,SW,16.1,24.2,0.01,Fog-Snow,Snow,230,2013-03-08 23:33:00
4:44 PM,30.2,28.4,93,29.77,0.8,SW,5.8,-,0.01,Snow,Light Snow,230,2013-03-08 23:44:00
4:48 PM,30.2,28.4,93,29.77,2.0,SW,5.8,-,0.01,Snow,Light Snow,230,2013-03-08 23:48:00
4:53 PM,30.9,28.9,92,29.73,8.0,SW,5.8,-,0.01,,Mostly Cloudy,230,2013-03-08 23:53:00
5:53 PM,34.0,27.0,75,29.77,10.0,West,9.2,-,N/A,,Mostly Cloudy,280,2013-03-09 00:53:00
6:53 PM,33.1,27.0,78,29.80,10.0,SSE,4.6,-,N/A,,Mostly Cloudy,150,2013-03-09 01:53:00
7:53 PM,30.9,28.9,92,29.81,10.0,SE,6.9,-,N/A,,Mostly Cloudy,140,2013-03-09 02:53:00
8:00 PM,30.2,28.4,93,29.84,10.0,SSE,4.6,-,N/A,,Scattered Clouds,160,2013-03-09 03:00:00
8:53 PM,30.0,28.9,96,29.80,10.0,Calm,Calm,-,0.00,,Scattered Clouds,0,2013-03-09 03:53:00
9:38 PM,32.0,28.4,87,29.86,10.0,SSE,4.6,-,N/A,,Mostly Cloudy,160,2013-03-09 04:38:00
9:45 PM,32.0,28.4,87,29.86,10.0,SSE,6.9,-,N/A,,Overcast,160,2013-03-09 04:45:00
9:53 PM,32.0,28.0,85,29.80,10.0,South,8.1,-,N/A,,Overcast,170,2013-03-09 04:53:00
10:41 PM,32.0,28.4,87,29.88,10.0,SE,6.9,-,N/A,,Overcast,130,2013-03-09 05:41:00
10:50 PM,32.0,28.4,87,29.88,6.0,SE,8.1,-,0.00,Snow,Light Snow,140,2013-03-09 05:50:00
10:53 PM,32.0,28.9,88,29.83,5.0,SE,6.9,-,0.00,Snow,Light Snow,140,2013-03-09 05:53:00
11:41 PM,32.0,30.2,93,29.88,2.5,SW,4.6,-,0.00,Snow,Light Snow,220,2013-03-09 06:41:00
11:49 PM,32.0,28.4,87,29.87,1.2,South,3.5,-,0.00,Snow,Light Snow,170,2013-03-09 06:49:00
11:53 PM,32.0,30.0,92,29.83,1.8,Calm,Calm,-,0.00,Snow,Light Snow,0,2013-03-09 06:53:00
11:56 PM,32.0,30.2,93,29.87,3.0,Calm,Calm,-,0.00,Snow,Light Snow,0,2013-03-09 06:56:00